Weather in Privetnoe

Ukraine / Volyn Oblast     50°38′25″N   24°44′52″E
temp.,
°C
wind,
m/s
gust,
m/s
humid.,
%
clouds,
%
prec.,
mm/h
press.,
hPa
HPBL,
m
17 may, mon
mon1700:00+12w3794100 1.1 1007185
03:00+11sw3696100 1.6 1007187
06:00+10w369824 0.1 1007164
09:00+13nw23827 0.1 1006423
12:00+17n216493 0.0 10051155
15:00+17w2368100 0.1 1004562
18:00+18nw3462100 0.0 1003889
21:00+14n2274100 0.0 100311
18 may, tue
tue1800:00+12nne2283100 0.0 100310
03:00+11n118885 0.0 100210
06:00+11nw228977 0.0 100228
09:00+15nw3475100 0.0 1002385
12:00+18nnw4565100 1.4 10011202
15:00+17nnw567199 4.0 10021185
18:00+15nw578138 2.9 1002764
21:00+13wnw71393100 4.6 1004615
19 may, wed
wed1900:00+11wnw7149387 0.3 1005501
03:00+10wnw6149267 0.4 1006521
06:00+9w61296100 0.0 1007535
09:00+9wnw71389100 0.0 1009624
12:00+15nw8106341 0.0 10091344
15:00+15wnw5868100 0.1 10101080
18:00+15nw677046 0.1 10101147
21:00+10nw349092 0.3 101162
20 may, thu
thu2000:00+8nnw33935 0.0 101142
03:00+7nnw349554 0.0 101165
06:00+7nnw349613 0.0 101173
09:00+12n468452 0.0 1011578
12:00+15n776796 0.3 10111331
15:00+15nnw686698 0.3 10101610
18:00+15n6106577 0.1 10111582
21:00+11nnw3680100 0.1 101295
21 may, fri
fri2100:00+8nw41091100 0.1 1014241
03:00+8nw51293100 0.1 1015317
06:00+6nw5129484 0.0 1016350
09:00+9nw71165100 0.0 1018666
12:00+13nw675496 0.0 10181415
15:00+15wnw575062 0.0 10182078
18:00+12wnw476491 0.0 1018601
21:00+9wsw22775 0.0 101816